{"data":{"norad_id":47263,"epoch":"2026-09-20T03:17:46.383360Z","epoch_age_seconds":45596,"freshness":"FRESH","line1":"1 47263U 20100F   26263.13734240 -.00000261  00000+0 -76075-3 0  9996","line2":"2 47263  87.8984 331.8031 0001898  98.5142 261.6202 13.12442320276985","mean_motion":13.1244232,"eccentricity":0.0001898,"inclination_deg":87.8984,"raan_deg":331.8031,"arg_perigee_deg":98.5142,"mean_anomaly_deg":261.6202,"bstar":-0.00076075,"rev_number":27698,"period_min":109.71910750333,"perigee_km":1212.2849777863,"apogee_km":1215.1668489482,"semimajor_km":7591.8629133672,"source":"CELESTRAK","updated_at":"2026-09-20T09:00:44.576793Z"}}